| time (UTC) | temp F | wind direction | speed MPH | gust MPH | rain 1hr in | rain 24hr in | rain mn in | humidity % | barometer mb |
| 20260502230522 | 62 | 51 | 3.0 | 9.0 | 0.00 | 0.00 | 0.00 | 35 | 1019.0 |
| 20260502225520 | 63 | 66 | 3.0 | 7.0 | 0.00 | 0.00 | 0.00 | 36 | 1018.9 |
| 20260502224518 | 63 | 48 | 4.0 | 7.0 | 0.00 | 0.00 | 0.00 | 35 | 1018.9 |
| 20260502223536 | 65 | 43 | 3.0 | 7.0 | 0.00 | 0.00 | 0.00 | 35 | 1018.9 |
| 20260502222535 | 64 | 43 | 2.0 | 8.0 | 0.00 | 0.00 | 0.00 | 35 | 1018.8 |
| 20260502221532 | 65 | 27 | 4.0 | 7.0 | 0.00 | 0.00 | 0.00 | 36 | 1018.7 |
| 20260502220531 | 64 | 40 | 3.0 | 6.0 | 0.00 | 0.00 | 0.00 | 36 | 1018.8 |
| 20260502215529 | 65 | 27 | 4.0 | 8.0 | 0.00 | 0.00 | 0.00 | 36 | 1018.8 |
| 20260502214527 | 64 | 42 | 5.0 | 10.0 | 0.00 | 0.00 | 0.00 | 36 | 1018.9 |
| 20260502213545 | 67 | 66 | 5.0 | 10.0 | 0.00 | 0.00 | 0.00 | 36 | 1018.9 |
| 20260502212523 | 66 | 250 | 3.0 | 6.0 | 0.00 | 0.00 | 0.00 | 39 | 1018.9 |
| 20260502211601 | 65 | 46 | 4.0 | 9.0 | 0.00 | 0.00 | 0.00 | 37 | 1019.0 |
| 20260502210539 | 65 | 66 | 4.0 | 8.0 | 0.00 | 0.00 | 0.00 | 37 | 1018.9 |
| 20260502205537 | 66 | 37 | 3.0 | 9.0 | 0.00 | 0.00 | 0.00 | 35 | 1019.0 |
| 20260502204516 | 65 | 58 | 4.0 | 9.0 | 0.00 | 0.00 | 0.00 | 36 | 1019.1 |
| 20260502203534 | 65 | 46 | 4.0 | 6.0 | 0.00 | 0.00 | 0.00 | 36 | 1019.3 |
| 20260502202552 | 65 | 40 | 7.0 | 7.0 | 0.00 | 0.00 | 0.00 | 35 | 1019.4 |
| 20260502201610 | 65 | 50 | 7.0 | 10.0 | 0.00 | 0.00 | 0.00 | 38 | 1019.4 |
| 20260502200528 | 65 | 29 | 4.0 | 7.0 | 0.00 | 0.00 | 0.00 | 37 | 1019.5 |
| 20260502195526 | 66 | 44 | 3.0 | 8.0 | 0.00 | 0.00 | 0.00 | 38 | 1019.5 |
| 20260502194545 | 64 | 57 | 6.0 | 9.0 | 0.00 | 0.00 | 0.00 | 39 | 1019.6 |
| 20260502193523 | 63 | 42 | 4.0 | 7.0 | 0.00 | 0.00 | 0.00 | 40 | 1019.7 |
| 20260502192521 | 62 | 62 | 5.0 | 9.0 | 0.00 | 0.00 | 0.00 | 41 | 1019.6 |
| 20260502191519 | 62 | 37 | 4.0 | 8.0 | 0.00 | 0.00 | 0.00 | 41 | 1019.7 |
| 20260502190518 | 63 | 63 | 4.0 | 6.0 | 0.00 | 0.00 | 0.00 | 39 | 1019.7 |
| 20260502185515 | 63 | 72 | 5.0 | 10.0 | 0.00 | 0.00 | 0.00 | 39 | 1019.8 |
| 20260502184534 | 63 | 53 | 5.0 | 6.0 | 0.00 | 0.00 | 0.00 | 39 | 1019.9 |
| 20260502183532 | 63 | 18 | 4.0 | 7.0 | 0.00 | 0.00 | 0.00 | 40 | 1019.7 |
| 20260502182530 | 62 | 4 | 2.0 | 4.0 | 0.00 | 0.00 | 0.00 | 41 | 1019.9 |
| 20260502181528 | 62 | 67 | 5.0 | 11.0 | 0.00 | 0.00 | 0.00 | 39 | 1019.9 |
| 20260502180526 | 63 | 12 | 4.0 | 9.0 | 0.00 | 0.00 | 0.00 | 41 | 1020.1 |
| 20260502163609 | 60 | 56 | 5.0 | 12.0 | 0.00 | 0.00 | 0.00 | 47 | 1020.3 |
| 20260502162548 | 61 | 25 | 5.0 | 9.0 | 0.00 | 0.00 | 0.00 | 46 | 1020.3 |
| 20260502161526 | 60 | 47 | 5.0 | 9.0 | 0.00 | 0.00 | 0.00 | 46 | 1020.2 |
| 20260502160524 | 60 | 54 | 5.0 | 12.0 | 0.00 | 0.00 | 0.00 | 48 | 1020.2 |
| 20260502151534 | 59 | 39 | 4.0 | 10.0 | 0.00 | 0.00 | 0.00 | 54 | 1020.3 |
| 20260502150533 | 58 | 40 | 5.0 | 8.0 | 0.00 | 0.00 | 0.00 | 54 | 1020.3 |
| 20260502130530 | 50 | 51 | 2.0 | 5.0 | 0.00 | 0.00 | 0.00 | 70 | 1019.4 |
| 20260502123524 | 46 | 53 | 3.0 | 7.0 | 0.00 | 0.00 | 0.00 | 78 | 1019.3 |
| 20260502122523 | 44 | 47 | 3.0 | 5.0 | 0.00 | 0.00 | 0.00 | 80 | 1019.2 |
| 20260502121521 | 43 | 107 | 2.0 | 4.0 | 0.00 | 0.00 | 0.00 | 83 | 1018.9 |
| 20260502120519 | 42 | 323 | 1.0 | 2.0 | 0.00 | 0.00 | 0.00 | 84 | 1018.9 |
| 20260502115517 | 42 | 77 | 1.0 | 3.0 | 0.00 | 0.00 | 0.00 | 83 | 1018.8 |
| 20260502114555 | 42 | 60 | 2.0 | 4.0 | 0.00 | 0.00 | 0.00 | 83 | 1018.7 |
| 20260502113554 | 43 | 43 | 2.0 | 4.0 | 0.00 | 0.00 | 0.00 | 83 | 1018.6 |
| 20260502112532 | 43 | 29 | 2.0 | 5.0 | 0.00 | 0.00 | 0.00 | 82 | 1018.5 |
| 20260502111530 | 43 | 64 | 2.0 | 4.0 | 0.00 | 0.00 | 0.00 | 83 | 1018.5 |
| 20260502110528 | 42 | 55 | 1.0 | 4.0 | 0.00 | 0.00 | 0.00 | 85 | 1018.5 |
| 20260502105526 | 42 | 128 | 2.0 | 3.0 | 0.00 | 0.00 | 0.00 | 84 | 1018.3 |
| 20260502104544 | 42 | 42 | 2.0 | 3.0 | 0.00 | 0.00 | 0.00 | 85 | 1018.3 |
| 20260502103522 | 42 | 100 | 1.0 | 3.0 | 0.00 | 0.00 | 0.00 | 86 | 1018.1 |
| 20260502102521 | 41 | 15 | 4.0 | 6.0 | 0.00 | 0.00 | 0.00 | 87 | 1018.1 |
| 20260502100537 | 41 | 35 | 3.0 | 6.0 | 0.00 | 0.00 | 0.00 | 88 | 1017.9 |
| 20260502091528 | 42 | 83 | 1.0 | 2.0 | 0.00 | 0.00 | 0.00 | 85 | 1017.6 |
| 20260502090526 | 42 | 54 | 2.0 | 2.0 | 0.00 | 0.00 | 0.00 | 86 | 1017.5 |
| 20260502070523 | 43 | 73 | 1.0 | 2.0 | 0.00 | 0.00 | 0.00 | 83 | 1017.6 |
| 20260502065522 | 43 | 74 | 2.0 | 2.0 | 0.00 | 0.00 | 0.00 | 83 | 1017.5 |
| 20260502064520 | 43 | 66 | 2.0 | 2.0 | 0.00 | 0.00 | 0.00 | 82 | 1017.6 |
| 20260502063518 | 43 | 72 | 0.0 | 2.0 | 0.00 | 0.00 | 0.00 | 82 | 1017.7 |
| 20260502062516 | 43 | 76 | 2.0 | 3.0 | 0.00 | 0.00 | 0.00 | 82 | 1017.8 |
| 20260502061534 | 44 | 69 | 1.0 | 2.0 | 0.00 | 0.00 | 0.00 | 81 | 1017.8 |
| 20260502060532 | 45 | 68 | 1.0 | 2.0 | 0.00 | 0.00 | 0.00 | 81 | 1017.9 |
| 20260502055530 | 45 | 80 | 2.0 | 3.0 | 0.00 | 0.00 | 0.00 | 80 | 1017.9 |
| 20260502054529 | 45 | 73 | 1.0 | 2.0 | 0.00 | 0.00 | 0.00 | 79 | 1017.9 |
| 20260502053527 | 45 | 70 | 1.0 | 2.0 | 0.00 | 0.00 | 0.00 | 77 | 1017.9 |
| 20260502052525 | 46 | 59 | 2.0 | 3.0 | 0.00 | 0.00 | 0.00 | 75 | 1017.9 |
| 20260502051523 | 46 | 80 | 1.0 | 2.0 | 0.00 | 0.00 | 0.00 | 73 | 1017.7 |
| 20260502050541 | 47 | 76 | 1.0 | 2.0 | 0.00 | 0.00 | 0.00 | 71 | 1017.8 |
| 20260502045539 | 47 | 76 | 1.0 | 2.0 | 0.00 | 0.00 | 0.00 | 69 | 1017.7 |
| 20260502044518 | 47 | 80 | 1.0 | 2.0 | 0.00 | 0.00 | 0.00 | 68 | 1017.8 |
| 20260502043516 | 47 | 78 | 1.0 | 2.0 | 0.00 | 0.00 | 0.00 | 70 | 1017.7 |
| 20260502042534 | 48 | 98 | 2.0 | 2.0 | 0.00 | 0.00 | 0.00 | 66 | 1017.8 |
| 20260502041532 | 48 | 86 | 1.0 | 2.0 | 0.00 | 0.00 | 0.00 | 63 | 1017.9 |
| 20260502040530 | 48 | 90 | 2.0 | 2.0 | 0.00 | 0.00 | 0.00 | 63 | 1017.9 |
| 20260502035528 | 48 | 77 | 2.0 | 2.0 | 0.00 | 0.00 | 0.00 | 62 | 1018.0 |
| 20260502034526 | 49 | 64 | 1.0 | 2.0 | 0.00 | 0.00 | 0.00 | 60 | 1018.0 |
| 20260502033525 | 49 | 68 | 1.0 | 2.0 | 0.00 | 0.00 | 0.00 | 60 | 1018.1 |
| 20260502032523 | 50 | 83 | 2.0 | 2.0 | 0.00 | 0.00 | 0.00 | 59 | 1018.2 |
| 20260502031521 | 50 | 80 | 2.0 | 2.0 | 0.00 | 0.00 | 0.00 | 59 | 1018.2 |
| 20260502030519 | 50 | 86 | 2.0 | 2.0 | 0.00 | 0.00 | 0.00 | 58 | 1018.2 |
| 20260502025517 | 51 | 79 | 1.0 | 2.0 | 0.00 | 0.00 | 0.00 | 58 | 1018.1 |
| 20260502024535 | 51 | 91 | 2.0 | 2.0 | 0.00 | 0.00 | 0.00 | 56 | 1018.1 |
| 20260502023533 | 51 | 83 | 2.0 | 2.0 | 0.00 | 0.00 | 0.00 | 55 | 1018.0 |
| 20260502022531 | 52 | 71 | 1.0 | 2.0 | 0.00 | 0.00 | 0.00 | 52 | 1018.0 |
| 20260502021529 | 53 | 66 | 1.0 | 2.0 | 0.00 | 0.00 | 0.00 | 51 | 1017.8 |
| 20260502020528 | 53 | 83 | 1.0 | 2.0 | 0.00 | 0.00 | 0.00 | 50 | 1017.8 |
| 20260502015526 | 54 | 81 | 2.0 | 2.0 | 0.00 | 0.00 | 0.00 | 48 | 1017.6 |
| 20260502014524 | 55 | 66 | 1.0 | 3.0 | 0.00 | 0.00 | 0.00 | 48 | 1017.5 |
| 20260502013522 | 56 | 78 | 2.0 | 2.0 | 0.00 | 0.00 | 0.00 | 44 | 1017.3 |
| 20260502012520 | 57 | 50 | 1.0 | 2.0 | 0.00 | 0.00 | 0.00 | 40 | 1017.2 |
| 20260502011539 | 58 | 53 | 1.0 | 3.0 | 0.00 | 0.00 | 0.00 | 39 | 1017.0 |
| 20260502010517 | 58 | 57 | 1.0 | 3.0 | 0.00 | 0.00 | 0.00 | 37 | 1016.8 |
| 20260502005535 | 59 | 44 | 2.0 | 4.0 | 0.00 | 0.00 | 0.00 | 37 | 1016.7 |
| 20260502004533 | 59 | 48 | 2.0 | 4.0 | 0.00 | 0.00 | 0.00 | 35 | 1016.6 |
| 20260502003531 | 60 | 56 | 2.0 | 4.0 | 0.00 | 0.00 | 0.00 | 35 | 1016.4 |
| 20260502002549 | 61 | 56 | 3.0 | 5.0 | 0.00 | 0.00 | 0.00 | 33 | 1016.2 |
| 20260502001527 | 61 | 33 | 3.0 | 5.0 | 0.00 | 0.00 | 0.00 | 32 | 1016.1 |
| 20260502000525 | 61 | 68 | 5.0 | 10.0 | 0.00 | 0.00 | 0.00 | 33 | 1016.0 |
| 20260501235524 | 61 | 48 | 2.0 | 4.0 | 0.00 | 0.00 | 0.00 | 33 | 1016.1 |
| 20260501234521 | 62 | 70 | 3.0 | 9.0 | 0.00 | 0.00 | 0.00 | 32 | 1016.1 |
| 20260501233520 | 62 | 64 | 4.0 | 8.0 | 0.00 | 0.00 | 0.00 | 32 | 1016.3 |
| 20260501232518 | 62 | 18 | 4.0 | 10.0 | 0.00 | 0.00 | 0.00 | 30 | 1016.3 |
| 20260501231516 | 63 | 33 | 3.0 | 7.0 | 0.00 | 0.00 | 0.00 | 31 | 1016.2 |